When you browse on this site, cookies collect data to enhance your experience and personalize the content and advertising you see.
Visit our Privacy Policy to learn more. By continuing to use the site, you agree to this use of cookies and data.
  • In Hungary
  • List of Countries
  • For 7 days
  • Water Temperature
  • Satellite Maps
  • Weather Map
  • News
  • Weather Widgets
  • user-avatar
    Login

    Hourly Weather Vikentove

    Today, 21 July, Sunday

    Time Temperature Precipitation Wind Pressure Humidity
    00:00 +18°C° 0 mm 1 mps 737 mmHg 87%
    01:00 +18°C° 0 mm 1 mps 737 mmHg 88%
    02:00 +16°C° 0 mm 1 mps 737 mmHg 88%
    03:00 +16°C° 0 mm 1 mps 737 mmHg 88%
    04:00 +16°C° 0 mm 1 mps 737 mmHg 88%
    05:00 +16°C° 0 mm 1 mps 737 mmHg 88%
    06:00 +19°C° 0 mm 1 mps 737 mmHg 83%
    07:00 +20°C° 0 mm 1 mps 737 mmHg 79%
    08:00 +22°C° 0 mm 1 mps 737 mmHg 74%
    09:00 +24°C° 0 mm 1 mps 737 mmHg 69%
    10:00 +25°C° 0 mm 2 mps 738 mmHg 64%
    11:00 +27°C° 0 mm 2 mps 738 mmHg 59%
    12:00 +27°C° 0.1 mm 2 mps 738 mmHg 57%
    13:00 +28°C° 0.1 mm 2 mps 737 mmHg 55%
    14:00 +28°C° 0.1 mm 2 mps 737 mmHg 53%
    15:00 +28°C° 0.2 mm 2 mps 737 mmHg 56%
    16:00 +28°C° 0.2 mm 2 mps 737 mmHg 59%
    17:00 +28°C° 0.2 mm 2 mps 737 mmHg 62%
    18:00 +26°C° 0.3 mm 1 mps 737 mmHg 68%
    19:00 +24°C° 0.3 mm 1 mps 736 mmHg 73%
    20:00 +21°C° 0.3 mm 0 mps 736 mmHg 78%
    21:00 +20°C° 0.3 mm 0 mps 736 mmHg 81%
    22:00 +21°C° 0.3 mm 1 mps 736 mmHg 84%
    23:00 +20°C° 0.3 mm 1 mps 736 mmHg 87%

    Tomorrow, 22 July, Monday

    Time Temperature Precipitation Wind Pressure Humidity
    00:00 +20°C° 0.5 mm 1 mps 736 mmHg 89%
    01:00 +19°C° 0.5 mm 2 mps 736 mmHg 92%
    02:00 +19°C° 0.5 mm 3 mps 736 mmHg 94%
    03:00 +19°C° 0.6 mm 3 mps 736 mmHg 95%
    04:00 +18°C° 0.6 mm 4 mps 736 mmHg 95%
    05:00 +18°C° 0.6 mm 4 mps 736 mmHg 95%
    06:00 +18°C° 0.2 mm 4 mps 736 mmHg 93%
    07:00 +19°C° 0.2 mm 4 mps 737 mmHg 92%
    08:00 +19°C° 0.2 mm 3 mps 737 mmHg 90%
    09:00 +20°C° 0.3 mm 4 mps 737 mmHg 86%
    10:00 +21°C° 0.3 mm 5 mps 737 mmHg 81%
    11:00 +23°C° 0.3 mm 5 mps 738 mmHg 77%
    12:00 +23°C° 0.3 mm 5 mps 738 mmHg 74%
    13:00 +23°C° 0.3 mm 6 mps 737 mmHg 71%
    14:00 +24°C° 0.3 mm 6 mps 737 mmHg 69%
    15:00 +23°C° 0.1 mm 6 mps 737 mmHg 69%
    16:00 +23°C° 0.1 mm 6 mps 737 mmHg 68%
    17:00 +23°C° 0.1 mm 5 mps 737 mmHg 68%
    18:00 +22°C° 0 mm 5 mps 737 mmHg 73%
    19:00 +20°C° 0 mm 4 mps 737 mmHg 78%
    20:00 +19°C° 0 mm 3 mps 737 mmHg 83%
    21:00 +18°C° 0 mm 3 mps 737 mmHg 86%
    22:00 +17°C° 0 mm 3 mps 737 mmHg 89%
    23:00 +17°C° 0 mm 3 mps 737 mmHg 92%

    Day after tomorrow, 23 July, Tuesday

    Time Temperature Precipitation Wind Pressure Humidity
    00:00 +16°C° 0 mm 3 mps 737 mmHg 92%
    01:00 +16°C° 0 mm 3 mps 737 mmHg 91%
    02:00 +14°C° 0 mm 3 mps 737 mmHg 91%
    03:00 +14°C° 0 mm 3 mps 737 mmHg 93%
    04:00 +13°C° 0 mm 3 mps 737 mmHg 94%
    05:00 +13°C° 0 mm 3 mps 737 mmHg 95%
    06:00 +14°C° 0 mm 4 mps 737 mmHg 89%
    07:00 +15°C° 0 mm 4 mps 737 mmHg 83%
    08:00 +16°C° 0 mm 5 mps 737 mmHg 77%
    09:00 +17°C° 0 mm 5 mps 737 mmHg 73%
    10:00 +19°C° 0 mm 6 mps 737 mmHg 69%
    11:00 +20°C° 0 mm 6 mps 737 mmHg 65%
    12:00 +21°C° 0 mm 6 mps 737 mmHg 64%
    13:00 +21°C° 0 mm 6 mps 737 mmHg 63%
    14:00 +22°C° 0 mm 6 mps 737 mmHg 62%
    15:00 +22°C° 0.1 mm 6 mps 737 mmHg 64%
    16:00 +21°C° 0.1 mm 6 mps 737 mmHg 66%
    17:00 +21°C° 0.1 mm 6 mps 736 mmHg 68%
    18:00 +20°C° 0.1 mm 5 mps 736 mmHg 74%
    19:00 +19°C° 0.1 mm 4 mps 736 mmHg 80%
    20:00 +17°C° 0.1 mm 4 mps 736 mmHg 86%
    21:00 +17°C° 0 mm 4 mps 736 mmHg 88%
    22:00 +17°C° 0 mm 4 mps 736 mmHg 90%
    23:00 +16°C° 0 mm 3 mps 736 mmHg 92%

    24 July, Wednesday

    Time Temperature Precipitation Wind Pressure Humidity
    00:00 +16°C° 0 mm 3 mps 736 mmHg 93%
    01:00 +15°C° 0 mm 4 mps 736 mmHg 95%
    02:00 +14°C° 0 mm 4 mps 736 mmHg 96%
    03:00 +14°C° 0 mm 4 mps 736 mmHg 97%
    04:00 +14°C° 0 mm 4 mps 736 mmHg 97%
    05:00 +14°C° 0 mm 4 mps 736 mmHg 97%
    06:00 +15°C° 0 mm 4 mps 736 mmHg 95%
    07:00 +17°C° 0 mm 4 mps 736 mmHg 93%
    08:00 +18°C° 0 mm 4 mps 736 mmHg 91%
    09:00 +19°C° 0.1 mm 4 mps 736 mmHg 86%
    10:00 +20°C° 0.1 mm 4 mps 737 mmHg 81%
    11:00 +21°C° 0.1 mm 5 mps 737 mmHg 76%
    12:00 +22°C° 0.5 mm 5 mps 737 mmHg 73%
    13:00 +23°C° 0.5 mm 5 mps 736 mmHg 70%
    14:00 +25°C° 0.5 mm 5 mps 736 mmHg 67%
    15:00 +25°C° 0.2 mm 5 mps 736 mmHg 67%
    16:00 +25°C° 0.2 mm 5 mps 736 mmHg 67%
    17:00 +25°C° 0.2 mm 5 mps 736 mmHg 66%
    18:00 +23°C° 0.1 mm 4 mps 736 mmHg 72%
    19:00 +21°C° 0.1 mm 3 mps 737 mmHg 77%
    20:00 +20°C° 0.1 mm 3 mps 737 mmHg 83%
    21:00 +19°C° 0 mm 3 mps 737 mmHg 86%
    22:00 +18°C° 0 mm 3 mps 737 mmHg 89%
    23:00 +17°C° 0 mm 3 mps 737 mmHg 92%

    25 July, Thursday

    Time Temperature Precipitation Wind Pressure Humidity
    00:00 +17°C° 0 mm 3 mps 737 mmHg 93%
    01:00 +16°C° 0 mm 3 mps 737 mmHg 93%
    02:00 +16°C° 0 mm 3 mps 737 mmHg 94%
    03:00 +16°C° 0 mm 3 mps 737 mmHg 94%
    04:00 +15°C° 0 mm 2 mps 737 mmHg 95%
    05:00 +15°C° 0 mm 2 mps 738 mmHg 95%
    06:00 +17°C° 0 mm 3 mps 738 mmHg 91%
    07:00 +18°C° 0 mm 3 mps 738 mmHg 87%
    08:00 +20°C° 0 mm 3 mps 738 mmHg 83%
    09:00 +21°C° 0 mm 3 mps 738 mmHg 77%
    10:00 +23°C° 0 mm 4 mps 738 mmHg 70%
    11:00 +25°C° 0 mm 4 mps 738 mmHg 64%
    12:00 +26°C° 0 mm 4 mps 738 mmHg 61%
    13:00 +26°C° 0 mm 4 mps 738 mmHg 58%
    14:00 +27°C° 0 mm 4 mps 738 mmHg 56%
    15:00 +26°C° 0 mm 4 mps 738 mmHg 57%
    16:00 +26°C° 0 mm 4 mps 738 mmHg 59%
    17:00 +26°C° 0 mm 4 mps 738 mmHg 60%
    18:00 +23°C° 0 mm 4 mps 738 mmHg 66%
    19:00 +22°C° 0 mm 3 mps 738 mmHg 71%
    20:00 +20°C° 0 mm 3 mps 738 mmHg 77%
    21:00 +19°C° 0 mm 3 mps 738 mmHg 79%
    22:00 +18°C° 0 mm 2 mps 738 mmHg 80%
    23:00 +17°C° 0 mm 2 mps 738 mmHg 82%

    26 July, Friday

    Time Temperature Precipitation Wind Pressure Humidity
    00:00 +17°C° 0 mm 2 mps 738 mmHg 83%
    01:00 +16°C° 0 mm 2 mps 738 mmHg 84%
    02:00 +16°C° 0 mm 2 mps 738 mmHg 85%
    03:00 +16°C° 0 mm 2 mps 738 mmHg 87%
    04:00 +16°C° 0 mm 2 mps 738 mmHg 90%
    05:00 +16°C° 0 mm 2 mps 738 mmHg 92%
    06:00 +17°C° 0 mm 2 mps 738 mmHg 87%
    07:00 +19°C° 0 mm 2 mps 738 mmHg 82%
    08:00 +21°C° 0 mm 2 mps 738 mmHg 78%
    09:00 +22°C° 0 mm 3 mps 738 mmHg 73%
    10:00 +24°C° 0 mm 3 mps 738 mmHg 68%
    11:00 +26°C° 0 mm 3 mps 738 mmHg 64%
    12:00 +26°C° 0 mm 3 mps 738 mmHg 59%
    13:00 +27°C° 0 mm 3 mps 737 mmHg 55%
    14:00 +27°C° 0 mm 3 mps 737 mmHg 51%
    15:00 +27°C° 0 mm 3 mps 737 mmHg 52%
    16:00 +27°C° 0 mm 2 mps 737 mmHg 52%
    17:00 +27°C° 0 mm 2 mps 736 mmHg 53%
    18:00 +25°C° 0 mm 2 mps 736 mmHg 59%
    19:00 +23°C° 0 mm 1 mps 736 mmHg 65%
    20:00 +21°C° 0 mm 1 mps 736 mmHg 71%
    21:00 +21°C° 0 mm 1 mps 736 mmHg 74%
    22:00 +18°C° 0 mm 0 mps 736 mmHg 76%
    23:00 +17°C° 0 mm 0 mps 737 mmHg 78%
    Show more